Saint Regis, MT

12:28 PM MST on February 26, 2017 (GMT -0700)
Mullan Pass

Weather History for KMLP - January, 2013

Change the Weather History Date:

Tuesday, January 8, 2013

  Actual Average (K3TH) Record (K3TH)
Temperature  
Mean Temperature 26 °F -  
Max Temperature 30 °F 32 °F 45 °F (2002)
Min Temperature 21 °F 25 °F 19 °F (2001)
Degree Days  
Heating Degree Days 40    
Moisture  
Dew Point 23 °F    
Average Humidity 93    
Maximum Humidity 100    
Minimum Humidity 86    
Precipitation  
Precipitation 0.28 in - - ()
Sea Level Pressure  
Sea Level Pressure 29.95 in    
Wind  
Wind Speed 9 mph (WSW)    
Max Wind Speed 16 mph    
Max Gust Speed 36 mph    
Visibility 5 miles    
Events Fog , Rain , Snow    
Averages and records for this station are not official NWS values.
T = Trace of Precipitation, MM = Missing Value Source: NWS Daily Summary

Daily Weather History Graph

Daily Weather History Graph

Search for Another Location

Airport or City:

Trip Planner

Search our weather history database for the weather conditions in past years. The results will help you decide how hot, cold, wet, or windy it might be!

Date:

Astronomy

Jan. 08, 2013 Rise Set
Actual Time 7:29 AM PST 4:10 PM PST
Civil Twilight 6:53 AM PST 4:45 PM PST
Nautical Twilight 6:15 AM PST 5:24 PM PST
Astronomical Twilight 5:38 AM PST 6:01 PM PST
Moon 4:05 AM PST (1/8) 1:17 PM PST (1/8)
Length of Visible Light 9h 51m
Length of Day
8h 41m
Waning Crescent, 13% of the Moon is Illuminated
Jan 8
Waning Crescent
Jan 11
New
Jan 18
First Quarter
Jan 26
Full
Feb 3
Last Quarter

Hourly Weather History & Observations

Time (PST) Temp. Windchill Dew Point Humidity Pressure Visibility Wind Dir Wind Speed Gust Speed Precip Events Conditions
12:01 AM 26.6 °F 15.7 °F 24.8 °F 93% 29.81 in 9.0 mi WSW 12.7 mph 26.5 mph 0.00 in Rain Light Freezing Rain
12:05 AM 26.6 °F 14.7 °F 24.8 °F 93% 29.82 in 10.0 mi West 15.0 mph 26.5 mph 0.00 in   Overcast
12:16 AM 24.8 °F 13.4 °F 24.8 °F 100% 29.82 in 6.0 mi West 12.7 mph 31.1 mph 0.00 in   Overcast
12:26 AM 24.8 °F 14.6 °F 24.8 °F 100% 29.82 in 8.0 mi West 10.4 mph 29.9 mph 0.00 in Rain Light Freezing Rain
12:35 AM 24.8 °F 12.9 °F 23.0 °F 93% 29.83 in 7.0 mi West 13.8 mph 27.6 mph 0.00 in   Overcast
12:46 AM 24.8 °F 12.9 °F 23.0 °F 93% 29.83 in 7.0 mi West 13.8 mph 33.4 mph 0.00 in Rain Light Freezing Rain
12:53 AM 25.0 °F 12.2 °F 21.9 °F 88% 29.95 in 2.5 mi West 16.1 mph 35.7 mph 0.00 in Snow Light Snow
1:05 AM 24.8 °F 11.9 °F 21.2 °F 86% 29.84 in 4.0 mi West 16.1 mph 33.4 mph 0.00 in Snow Light Snow
1:53 AM 24.1 °F 13.1 °F 21.9 °F 91% 29.97 in 5.0 mi West 11.5 mph 32.2 mph 0.00 in   Overcast
2:05 AM 24.8 °F 15.3 °F 23.0 °F 93% 29.86 in 10.0 mi West 9.2 mph 32.2 mph 0.00 in   Overcast
2:27 AM 24.8 °F 13.4 °F 21.2 °F 86% 29.87 in 6.0 mi West 12.7 mph 31.1 mph 0.00 in   Overcast
2:53 AM 24.1 °F 12.0 °F 21.0 °F 88% 29.99 in 10.0 mi West 13.8 mph 35.7 mph 0.00 in   Mostly Cloudy
3:01 AM 24.8 °F 14.6 °F 21.2 °F 86% 29.89 in 10.0 mi West 10.4 mph 35.7 mph N/A   Overcast
3:53 AM 23.0 °F 13.9 °F 21.0 °F 92% 30.02 in 10.0 mi West 8.1 mph 25.3 mph N/A   Mostly Cloudy
4:22 AM 23.0 °F 13.9 °F 19.4 °F 86% 29.90 in 10.0 mi West 8.1 mph 32.2 mph N/A   Mostly Cloudy
4:42 AM 21.2 °F 10.1 °F 19.4 °F 93% 29.91 in 10.0 mi WNW 10.4 mph 27.6 mph N/A   Mostly Cloudy
4:53 AM 21.9 °F 13.4 °F 19.9 °F 92% 30.03 in 10.0 mi Variable 6.9 mph 27.6 mph N/A   Mostly Cloudy
5:53 AM 21.9 °F 13.4 °F 19.9 °F 92% 30.04 in 10.0 mi Variable 6.9 mph 21.9 mph N/A   Overcast
6:12 AM 21.2 °F 14.9 °F 19.4 °F 93% 29.93 in 10.0 mi Variable 4.6 mph - N/A   Overcast
6:53 AM 21.9 °F 14.5 °F 19.9 °F 92% 30.06 in 10.0 mi Variable 5.8 mph - N/A   Overcast
7:53 AM 21.9 °F 11.7 °F 19.9 °F 92% 30.08 in 10.0 mi WNW 9.2 mph - N/A   Overcast
8:53 AM 21.9 °F 15.7 °F 19.9 °F 92% 30.09 in 10.0 mi Variable 4.6 mph - N/A   Overcast
9:19 AM 23.0 °F 14.7 °F 21.2 °F 93% 29.99 in 10.0 mi WSW 6.9 mph - N/A   Overcast
9:47 AM 23.0 °F 15.8 °F 21.2 °F 93% 29.99 in 10.0 mi SW 5.8 mph - N/A   Overcast
9:53 AM 23.0 °F 17.0 °F 21.0 °F 92% 30.10 in 10.0 mi Variable 4.6 mph - N/A   Overcast
10:01 AM 23.0 °F 14.7 °F 21.2 °F 93% 29.98 in 10.0 mi SW 6.9 mph - N/A   Overcast
10:11 AM 23.0 °F 17.0 °F 21.2 °F 93% 29.97 in 10.0 mi Variable 4.6 mph - N/A   Overcast
10:44 AM 23.0 °F 18.4 °F 21.2 °F 93% 29.96 in 7.0 mi Variable 3.5 mph - N/A   Overcast
10:53 AM 23.0 °F 15.8 °F 21.9 °F 96% 30.07 in 3.0 mi Variable 5.8 mph - 0.00 in Snow Light Snow
11:02 AM 23.0 °F 17.0 °F 21.2 °F 93% 29.95 in 2.5 mi SW 4.6 mph - 0.00 in Snow Light Snow
11:12 AM 23.0 °F 15.8 °F 21.2 °F 93% 29.95 in 1.5 mi Variable 5.8 mph - 0.01 in Snow Light Snow
11:42 AM 24.8 °F - 23.0 °F 93% 29.94 in 0.8 mi Calm Calm - 0.01 in Snow Light Snow
11:53 AM 24.1 °F 18.2 °F 23.0 °F 96% 30.05 in 0.8 mi Variable 4.6 mph - 0.01 in Snow Light Snow
12:01 PM 23.0 °F 18.4 °F 23.0 °F 100% 29.93 in 1.2 mi Variable 3.5 mph - 0.00 in Snow Light Snow
12:40 PM 24.8 °F - 23.0 °F 93% 29.92 in 0.8 mi Calm Calm - 0.02 in Snow Light Snow
12:53 PM 23.0 °F 15.8 °F 21.9 °F 96% 30.05 in 0.5 mi Variable 5.8 mph - 0.02 in Fog , Snow Snow
1:02 PM 24.8 °F 20.5 °F 23.0 °F 93% 29.91 in 0.5 mi Variable 3.5 mph - 0.01 in Fog , Snow Snow
1:31 PM 24.8 °F 19.1 °F 23.0 °F 93% 29.90 in 0.2 mi Variable 4.6 mph - 0.02 in Fog , Snow Snow
1:46 PM 24.8 °F 19.1 °F 23.0 °F 93% 29.90 in 0.5 mi Variable 4.6 mph - 0.03 in Fog , Snow Snow
1:53 PM 24.1 °F 19.7 °F 21.9 °F 91% 30.03 in 1.0 mi Variable 3.5 mph - 0.03 in Snow Light Snow
2:02 PM 24.8 °F 20.5 °F 23.0 °F 93% 29.89 in 1.8 mi Variable 3.5 mph - 0.00 in Snow Light Snow
2:12 PM 24.8 °F 19.1 °F 23.0 °F 93% 29.89 in 1.0 mi Variable 4.6 mph - 0.00 in Snow Light Snow
2:19 PM 24.8 °F 17.9 °F 23.0 °F 93% 29.89 in 0.8 mi Variable 5.8 mph - 0.01 in Snow Light Snow
2:53 PM 24.1 °F 16.0 °F 23.0 °F 96% 30.02 in 0.2 mi Variable 6.9 mph - 0.01 in Fog , Snow Light Snow
3:53 PM 25.0 °F 19.3 °F 24.1 °F 96% 30.01 in 0.2 mi Variable 4.6 mph - 0.02 in Fog , Snow Light Snow
4:53 PM 26.1 °F 20.5 °F 25.0 °F 96% 30.01 in 0.8 mi Variable 4.6 mph - 0.02 in Snow Light Snow
5:53 PM 27.0 °F 19.5 °F 27.0 °F 100% 29.99 in 0.8 mi Variable 6.9 mph - 0.01 in Snow Light Snow
6:53 PM 28.0 °F 20.8 °F 28.0 °F 100% 29.98 in 0.8 mi Variable 6.9 mph - 0.04 in Snow Light Snow
7:53 PM 28.9 °F 22.8 °F 28.0 °F 96% 29.96 in 0.5 mi Variable 5.8 mph 17.3 mph 0.02 in Fog , Snow Snow
9:53 PM 30.0 °F 21.7 °F 28.9 °F 96% 29.95 in 0.5 mi SSW 9.2 mph 23.0 mph 0.03 in Fog , Snow Light Snow
10:13 PM 30.2 °F 20.8 °F 28.4 °F 93% 29.86 in 0.2 mi South 11.5 mph 17.3 mph 0.01 in Fog , Snow Light Snow
10:53 PM 30.0 °F 22.4 °F 28.9 °F 96% 29.96 in 0.2 mi South 8.1 mph 27.6 mph 0.05 in Fog , Snow Snow
11:45 PM 30.2 °F 20.8 °F 28.4 °F 93% 29.86 in 0.2 mi South 11.5 mph 27.6 mph 0.02 in Fog Light Freezing Fog
11:53 PM 30.9 °F 22.2 °F 28.9 °F 92% 29.95 in 0.2 mi South 10.4 mph 27.6 mph 0.02 in Fog Light Freezing Fog